TimeCST,TemperatureF,Dew PointF,Humidity,Sea Level PressureIn,VisibilityMPH,Wind Direction,Wind SpeedMPH,Gust SpeedMPH,PrecipitationIn,Events,Conditions,WindDirDegrees,DateUTC
12:15 AM,62.6,62.6,100,30.18,7.0,South,5.8,-,N/A,,Overcast,190,2013-01-25 06:15:00
12:35 AM,64.4,64.4,100,30.18,8.0,South,9.2,-,N/A,,Overcast,170,2013-01-25 06:35:00
12:55 AM,62.6,62.6,100,30.18,7.0,South,5.8,-,N/A,,Overcast,180,2013-01-25 06:55:00
1:15 AM,62.6,62.6,100,30.18,7.0,South,6.9,-,N/A,,Overcast,180,2013-01-25 07:15:00
1:35 AM,64.4,64.4,100,30.18,7.0,South,6.9,-,N/A,,Overcast,180,2013-01-25 07:35:00
1:55 AM,64.4,64.4,100,30.17,7.0,South,8.1,-,N/A,,Overcast,180,2013-01-25 07:55:00
2:15 AM,64.4,64.4,100,30.16,7.0,South,12.7,-,N/A,,Overcast,180,2013-01-25 08:15:00
2:35 AM,64.4,64.4,100,30.15,7.0,South,13.8,-,N/A,,Overcast,180,2013-01-25 08:35:00
2:55 AM,64.4,64.4,100,30.15,8.0,South,12.7,17.3,N/A,,Overcast,180,2013-01-25 08:55:00
3:15 AM,64.4,64.4,100,30.14,8.0,South,11.5,-,N/A,,Overcast,180,2013-01-25 09:15:00
3:35 AM,64.4,64.4,100,30.14,8.0,SSW,12.7,18.4,N/A,,Overcast,200,2013-01-25 09:35:00
3:55 AM,64.4,64.4,100,30.14,8.0,South,15.0,19.6,N/A,,Overcast,190,2013-01-25 09:55:00
4:15 AM,64.4,64.4,100,30.14,9.0,South,12.7,19.6,N/A,,Overcast,190,2013-01-25 10:15:00
4:35 AM,64.4,64.4,100,30.13,10.0,South,10.4,-,N/A,,Overcast,190,2013-01-25 10:35:00
4:55 AM,64.4,64.4,100,30.14,9.0,South,11.5,-,N/A,,Overcast,190,2013-01-25 10:55:00
5:15 AM,62.6,62.6,100,30.14,8.0,South,10.4,-,N/A,,Mostly Cloudy,190,2013-01-25 11:15:00
5:35 AM,62.6,62.6,100,30.14,8.0,SSW,10.4,-,N/A,,Mostly Cloudy,200,2013-01-25 11:35:00
5:55 AM,64.4,64.4,100,30.15,8.0,SSW,10.4,-,N/A,,Mostly Cloudy,200,2013-01-25 11:55:00
6:15 AM,64.4,64.4,100,30.15,9.0,South,9.2,-,N/A,,Mostly Cloudy,180,2013-01-25 12:15:00
6:35 AM,62.6,62.6,100,30.15,8.0,South,8.1,-,N/A,,Scattered Clouds,190,2013-01-25 12:35:00
6:55 AM,62.6,62.6,100,30.15,7.0,South,8.1,-,N/A,,Scattered Clouds,180,2013-01-25 12:55:00
7:15 AM,62.6,62.6,100,30.17,7.0,Calm,Calm,-,N/A,,Mostly Cloudy,0,2013-01-25 13:15:00
7:35 AM,62.6,62.6,100,30.17,6.0,South,5.8,-,N/A,,Overcast,170,2013-01-25 13:35:00
7:55 AM,62.6,62.6,100,30.17,5.0,South,5.8,-,N/A,,Overcast,170,2013-01-25 13:55:00
8:15 AM,62.6,62.6,100,30.17,6.0,South,8.1,-,N/A,,Overcast,170,2013-01-25 14:15:00
8:35 AM,64.4,64.4,100,30.18,6.0,South,8.1,-,N/A,,Overcast,190,2013-01-25 14:35:00
8:55 AM,64.4,64.4,100,30.19,7.0,South,9.2,-,N/A,,Mostly Cloudy,190,2013-01-25 14:55:00
9:15 AM,64.4,64.4,100,30.19,7.0,South,11.5,-,N/A,,Overcast,190,2013-01-25 15:15:00
9:35 AM,66.2,64.4,94,30.19,8.0,South,12.7,18.4,N/A,,Overcast,190,2013-01-25 15:35:00
9:55 AM,68.0,64.4,88,30.19,8.0,South,13.8,21.9,N/A,,Overcast,180,2013-01-25 15:55:00
10:15 AM,69.8,64.4,83,30.20,9.0,South,19.6,-,N/A,,Scattered Clouds,180,2013-01-25 16:15:00
10:35 AM,71.6,64.4,78,30.19,10.0,SSW,21.9,26.5,N/A,,Mostly Cloudy,200,2013-01-25 16:35:00
10:55 AM,69.8,62.6,78,30.19,8.0,South,23.0,28.8,N/A,,Mostly Cloudy,190,2013-01-25 16:55:00
11:15 AM,73.4,62.6,69,30.18,8.0,South,20.7,27.6,N/A,,Mostly Cloudy,180,2013-01-25 17:15:00
11:35 AM,71.6,62.6,73,30.18,9.0,South,16.1,-,N/A,,Mostly Cloudy,180,2013-01-25 17:35:00
11:55 AM,71.6,62.6,73,30.18,9.0,SSW,15.0,18.4,N/A,,Overcast,210,2013-01-25 17:55:00
12:15 PM,73.4,62.6,69,30.16,10.0,South,17.3,-,N/A,,Overcast,190,2013-01-25 18:15:00
12:35 PM,75.2,62.6,65,30.14,9.0,South,17.3,21.9,N/A,,Overcast,180,2013-01-25 18:35:00
12:55 PM,75.2,62.6,65,30.13,9.0,SSW,15.0,23.0,N/A,,Mostly Cloudy,210,2013-01-25 18:55:00
1:15 PM,77.0,60.8,57,30.13,9.0,South,17.3,20.7,N/A,,Mostly Cloudy,190,2013-01-25 19:15:00
1:35 PM,77.0,62.6,61,30.12,9.0,South,13.8,19.6,N/A,,Mostly Cloudy,180,2013-01-25 19:35:00
1:55 PM,77.0,60.8,57,30.11,9.0,SSW,15.0,20.7,N/A,,Mostly Cloudy,200,2013-01-25 19:55:00
2:15 PM,77.0,60.8,57,30.11,10.0,South,15.0,19.6,N/A,,Mostly Cloudy,190,2013-01-25 20:15:00
2:35 PM,77.0,60.8,57,30.10,10.0,South,18.4,21.9,N/A,,Mostly Cloudy,180,2013-01-25 20:35:00
2:55 PM,75.2,60.8,61,30.10,9.0,South,15.0,18.4,N/A,,Scattered Clouds,170,2013-01-25 20:55:00
3:15 PM,75.2,60.8,61,30.09,9.0,South,16.1,-,N/A,,Mostly Cloudy,170,2013-01-25 21:15:00
3:35 PM,77.0,60.8,57,30.09,10.0,South,10.4,-,N/A,,Mostly Cloudy,170,2013-01-25 21:35:00
3:55 PM,77.0,60.8,57,30.09,10.0,SSE,11.5,-,N/A,,Mostly Cloudy,160,2013-01-25 21:55:00
4:15 PM,77.0,60.8,57,30.08,10.0,SSE,11.5,-,N/A,,Mostly Cloudy,160,2013-01-25 22:15:00
4:35 PM,75.2,60.8,61,30.08,9.0,South,11.5,-,N/A,,Scattered Clouds,170,2013-01-25 22:35:00
4:55 PM,75.2,62.6,65,30.08,10.0,South,11.5,18.4,N/A,,Partly Cloudy,180,2013-01-25 22:55:00
5:15 PM,73.4,62.6,69,30.09,10.0,South,15.0,-,N/A,,Partly Cloudy,170,2013-01-25 23:15:00
5:35 PM,71.6,62.6,73,30.09,10.0,SSE,10.4,-,N/A,,Clear,160,2013-01-25 23:35:00
5:55 PM,71.6,62.6,73,30.09,9.0,SSE,11.5,-,N/A,,Clear,160,2013-01-25 23:55:00
6:15 PM,69.8,62.6,78,30.10,9.0,SSE,11.5,-,N/A,,Clear,160,2013-01-26 00:15:00
6:35 PM,68.0,62.6,83,30.10,10.0,SSE,11.5,-,N/A,,Clear,160,2013-01-26 00:35:00
6:55 PM,68.0,62.6,83,30.10,10.0,SSE,10.4,-,N/A,,Clear,160,2013-01-26 00:55:00
7:15 PM,66.2,62.6,88,30.10,9.0,SSE,9.2,-,N/A,,Clear,160,2013-01-26 01:15:00
7:35 PM,66.2,64.4,94,30.10,9.0,SSE,11.5,-,N/A,,Clear,160,2013-01-26 01:35:00
7:55 PM,64.4,64.4,100,30.10,10.0,SSE,11.5,-,N/A,,Clear,160,2013-01-26 01:55:00
8:15 PM,64.4,62.6,94,30.11,10.0,SSE,6.9,-,N/A,,Clear,160,2013-01-26 02:15:00
8:35 PM,64.4,64.4,100,30.12,10.0,South,3.5,-,N/A,,Scattered Clouds,170,2013-01-26 02:35:00
8:55 PM,66.2,64.4,94,30.12,10.0,Calm,Calm,-,N/A,,Overcast,0,2013-01-26 02:55:00
9:15 PM,66.2,64.4,94,30.13,9.0,SSE,5.8,-,N/A,,Overcast,160,2013-01-26 03:15:00
9:55 PM,66.2,66.2,100,30.14,9.0,SSE,6.9,-,N/A,,Mostly Cloudy,160,2013-01-26 03:55:00
10:15 PM,66.2,66.2,100,30.14,9.0,SE,5.8,-,N/A,,Overcast,140,2013-01-26 04:15:00
10:35 PM,66.2,66.2,100,30.16,9.0,SSE,4.6,-,N/A,,Overcast,160,2013-01-26 04:35:00
10:55 PM,66.2,66.2,100,30.16,10.0,Calm,Calm,-,N/A,,Overcast,0,2013-01-26 04:55:00
11:15 PM,66.2,66.2,100,30.16,9.0,Calm,Calm,-,N/A,,Overcast,0,2013-01-26 05:15:00
11:35 PM,66.2,66.2,100,30.16,9.0,Calm,Calm,-,N/A,,Overcast,0,2013-01-26 05:35:00
11:55 PM,66.2,66.2,100,30.16,8.0,SSE,6.9,-,N/A,,Overcast,160,2013-01-26 05:55:00